Zurück zum Katalog

STARLINK-4575

AktivKommunikationVLEO
NORAD 53565·PAYLOAD·🇺🇸 United States

Gestartet Aug 19, 2022 von Cape Canaveral Space Force Station

Loading…

Nächste Überflüge (nächste 24 Stunden)

TLE

AktuellSource: CelesTrak SupGP

Epoche: Sep 14, 2026, 13:49 UTC

1 53565C 22101AQ  26257.57618056  .00010397  00000+0  30723-3 0  2574
2 53565  53.1568 271.3735 0001215  83.1868 244.0627 15.34380756    13

Verfolge STARLINK-4575 in Echtzeit mit AllMySat

Download on the App Store